Ionia, MI

2:11 PM EDT on May 28, 2017 (GMT -0400)
Ionia

Weather History for KY70 - February, 2013

Change the Weather History Date:

Monday, February 11, 2013

  Actual Average (KGRR) Record (KGRR)
Temperature  
Mean Temperature 40 °F -  
Max Temperature 46 °F 29 °F 69 °F (1999)
Min Temperature 33 °F 13 °F -21 °F (1899)
Degree Days  
Heating Degree Days 26    
Moisture  
Dew Point 30 °F    
Average Humidity 72    
Maximum Humidity 85    
Minimum Humidity 56    
Precipitation  
Precipitation 0.00 in - - ()
Sea Level Pressure  
Sea Level Pressure 29.61 in    
Wind  
Wind Speed 19 mph (WSW)    
Max Wind Speed 39 mph    
Max Gust Speed 44 mph    
Visibility 9 miles    
Events Snow    
Averages and records for this station are not official NWS values.
T = Trace of Precipitation, MM = Missing Value Source: NWS Daily Summary

Daily Weather History Graph

Daily Weather History Graph

Search for Another Location

Airport or City:

Trip Planner

Search our weather history database for the weather conditions in past years. The results will help you decide how hot, cold, wet, or windy it might be!

Date:

Astronomy

Feb. 11, 2013 Rise Set
Actual Time 7:42 AM EST 6:06 PM EST
Civil Twilight 7:13 AM EST 6:36 PM EST
Nautical Twilight 6:40 AM EST 7:09 PM EST
Astronomical Twilight 6:07 AM EST 7:42 PM EST
Moon 8:03 AM EST (2/11) 8:07 PM EST (2/11)
Length of Visible Light 11h 22m
Length of Day
10h 23m
Waxing Crescent, 3% of the Moon is Illuminated
Feb 11
Waxing Crescent
Feb 17
First Quarter
Feb 25
Full
Mar 4
Last Quarter
Mar 11
New

Hourly Weather History & Observations

Time (EST) Temp. Windchill Dew Point Humidity Pressure Visibility Wind Dir Wind Speed Gust Speed Precip Events Conditions
12:14 AM 43.7 °F 37.3 °F 38.8 °F 83% 29.57 in 10.0 mi South 12.7 mph - N/A   Overcast
12:33 AM 45.1 °F 38.4 °F 40.5 °F 84% 29.56 in 10.0 mi South 15.0 mph 19.6 mph N/A   Overcast
12:53 AM 45.5 °F 39.6 °F 40.8 °F 84% 29.55 in 10.0 mi South 12.7 mph - N/A   Overcast
1:13 AM 45.5 °F 39.2 °F 40.5 °F 83% 29.54 in 10.0 mi South 13.8 mph - N/A   Overcast
1:34 AM 45.5 °F 39.2 °F 40.5 °F 83% 29.53 in 10.0 mi South 13.8 mph - N/A   Overcast
1:53 AM 45.3 °F 39.3 °F 40.3 °F 83% 29.52 in 10.0 mi South 12.7 mph - N/A   Overcast
2:13 AM 46.0 °F 39.6 °F 41.2 °F 83% 29.52 in 10.0 mi South 15.0 mph - N/A   Overcast
2:33 AM 45.1 °F 39.5 °F 40.3 °F 83% 29.51 in 10.0 mi South 11.5 mph - N/A   Mostly Cloudy
2:54 AM 44.4 °F 40.0 °F 39.4 °F 82% 29.51 in 10.0 mi SSW 8.1 mph - N/A   Overcast
3:13 AM 44.4 °F 39.0 °F 40.1 °F 85% 29.51 in 10.0 mi SSW 10.4 mph - N/A   Overcast
3:34 AM 44.8 °F 39.9 °F 39.9 °F 83% 29.50 in 10.0 mi SW 9.2 mph - N/A   Overcast
3:53 AM 45.1 °F 38.8 °F 40.5 °F 84% 29.49 in 10.0 mi SW 13.8 mph - N/A   Scattered Clouds
4:14 AM 45.5 °F 38.6 °F 36.5 °F 71% 29.48 in 10.0 mi SW 16.1 mph 24.2 mph N/A   Scattered Clouds
4:33 AM 45.1 °F 38.4 °F 34.9 °F 67% 29.48 in 10.0 mi WSW 15.0 mph 20.7 mph N/A   Mostly Cloudy
4:54 AM 45.0 °F 37.9 °F 33.4 °F 64% 29.48 in 10.0 mi WSW 16.1 mph 20.7 mph N/A   Overcast
5:13 AM 44.8 °F 37.1 °F 32.0 °F 61% 29.48 in 10.0 mi WSW 18.4 mph 27.6 mph N/A   Overcast
5:34 AM 44.1 °F 34.2 °F 31.1 °F 60% 29.49 in 10.0 mi WSW 28.8 mph 35.7 mph N/A   Overcast
5:53 AM 43.2 °F 35.3 °F 30.0 °F 60% 29.49 in 10.0 mi WSW 17.3 mph 27.6 mph N/A   Overcast
6:14 AM 43.0 °F 32.5 °F 28.2 °F 56% 29.49 in 10.0 mi WSW 29.9 mph 39.1 mph N/A   Overcast
6:53 AM 41.2 °F 31.9 °F 30.0 °F 65% 29.50 in 10.0 mi WSW 20.7 mph 29.9 mph N/A   Overcast
7:14 AM 40.3 °F 31.3 °F 30.6 °F 68% 29.51 in 10.0 mi WSW 18.4 mph 26.5 mph N/A   Overcast
7:33 AM 39.9 °F 29.0 °F 28.6 °F 64% 29.52 in 10.0 mi WSW 26.5 mph 38.0 mph N/A   Overcast
7:53 AM 39.7 °F 29.0 °F 28.6 °F 64% 29.52 in 10.0 mi WSW 25.3 mph 32.2 mph N/A   Overcast
8:13 AM 39.4 °F 28.3 °F 28.4 °F 65% 29.52 in 10.0 mi WSW 26.5 mph - N/A   Overcast
8:33 AM 38.5 °F 27.3 °F 28.4 °F 67% 29.53 in 10.0 mi SW 25.3 mph 41.4 mph N/A   Overcast
8:54 AM 37.9 °F 26.1 °F 28.9 °F 70% 29.54 in 10.0 mi WSW 27.6 mph 41.4 mph N/A   Overcast
9:13 AM 37.8 °F 25.0 °F 27.0 °F 65% 29.54 in 10.0 mi WSW 32.2 mph 38.0 mph N/A   Overcast
9:34 AM 37.6 °F 25.6 °F 26.4 °F 64% 29.54 in 10.0 mi WSW 27.6 mph 34.5 mph N/A   Overcast
9:53 AM 37.6 °F 25.9 °F 25.3 °F 61% 29.54 in 10.0 mi WSW 26.5 mph 39.1 mph N/A   Overcast
10:14 AM 37.4 °F 24.6 °F 25.0 °F 61% 29.54 in 10.0 mi SW 32.2 mph 43.7 mph N/A   Overcast
10:33 AM 37.4 °F 25.9 °F 25.3 °F 62% 29.54 in 10.0 mi SW 25.3 mph 40.3 mph N/A Snow Light Snow
10:54 AM 37.4 °F 25.9 °F 26.6 °F 65% 29.55 in 7.0 mi WSW 25.3 mph 38.0 mph N/A Snow Light Snow
11:13 AM 36.7 °F 24.2 °F 27.7 °F 70% 29.55 in 3.0 mi WSW 28.8 mph 39.1 mph N/A Snow Light Snow
11:34 AM 36.5 °F 25.2 °F 29.1 °F 75% 29.56 in 2.5 mi WSW 23.0 mph 36.8 mph N/A Snow Light Snow
11:53 AM 36.7 °F 24.9 °F 29.3 °F 75% 29.56 in 3.0 mi WSW 25.3 mph 36.8 mph N/A   Haze
12:14 PM 36.5 °F 24.0 °F 30.0 °F 77% 29.56 in 1.8 mi SW 28.8 mph 38.0 mph N/A Snow Light Snow
12:33 PM 36.5 °F 24.7 °F 30.2 °F 78% 29.57 in 1.8 mi WSW 25.3 mph 34.5 mph N/A Snow Light Snow
12:54 PM 36.5 °F 24.2 °F 30.7 °F 80% 29.57 in 2.0 mi WSW 27.6 mph 34.5 mph N/A Snow Light Snow
1:13 PM 36.9 °F 24.9 °F 30.9 °F 79% 29.57 in 3.0 mi WSW 26.5 mph 38.0 mph N/A   Haze
1:34 PM 36.7 °F 25.4 °F 30.6 °F 78% 29.58 in 2.5 mi WSW 23.0 mph 39.1 mph N/A Snow Light Snow
1:53 PM 36.5 °F 22.2 °F 30.0 °F 77% 29.58 in 10.0 mi WSW 39.1 mph 42.6 mph N/A Snow Light Snow
2:14 PM 36.1 °F 23.5 °F 29.7 °F 77% 29.59 in 5.0 mi WSW 28.8 mph 41.4 mph N/A Snow Light Snow
2:33 PM 36.1 °F 22.8 °F 29.8 °F 78% 29.59 in 4.0 mi WSW 32.2 mph 38.0 mph N/A Snow Light Snow
2:53 PM 36.5 °F 24.7 °F 29.8 °F 77% 29.61 in 7.0 mi WSW 25.3 mph 36.8 mph N/A Snow Light Snow
3:13 PM 36.5 °F 25.2 °F 30.0 °F 77% 29.62 in 4.0 mi WSW 23.0 mph 36.8 mph N/A Snow Light Snow
3:34 PM 36.5 °F 24.4 °F 30.0 °F 77% 29.62 in 5.0 mi WSW 26.5 mph 38.0 mph N/A Snow Light Snow
3:53 PM 36.7 °F 24.2 °F 29.5 °F 75% 29.63 in 10.0 mi West 28.8 mph 36.8 mph N/A   Overcast
4:14 PM 36.7 °F 24.7 °F 29.1 °F 74% 29.65 in 10.0 mi WSW 26.5 mph 36.8 mph N/A   Overcast
4:33 PM 36.7 °F 24.7 °F 28.4 °F 72% 29.65 in 10.0 mi WSW 26.5 mph 41.4 mph N/A   Overcast
4:54 PM 36.7 °F 24.4 °F 28.4 °F 72% 29.67 in 10.0 mi West 27.6 mph 39.1 mph N/A   Overcast
5:53 PM 36.1 °F 24.7 °F 27.7 °F 71% 29.71 in 10.0 mi West 23.0 mph 39.1 mph N/A   Overcast
6:14 PM 36.1 °F 24.7 °F 27.5 °F 71% 29.72 in 10.0 mi West 23.0 mph 29.9 mph N/A   Overcast
6:33 PM 36.0 °F 24.7 °F 26.6 °F 69% 29.73 in 10.0 mi West 21.9 mph 36.8 mph N/A   Overcast
6:53 PM 35.2 °F 23.5 °F 28.2 °F 76% 29.75 in 7.0 mi West 23.0 mph 31.1 mph N/A Snow Light Snow
7:14 PM 34.7 °F 22.0 °F 28.6 °F 78% 29.76 in 7.0 mi West 26.5 mph 31.1 mph N/A Snow Light Snow
7:33 PM 34.7 °F 22.0 °F 27.9 °F 76% 29.76 in 10.0 mi West 26.5 mph 33.4 mph N/A   Overcast
7:54 PM 34.7 °F 22.5 °F 27.5 °F 75% 29.77 in 7.0 mi West 24.2 mph 32.2 mph N/A Snow Light Snow
8:13 PM 34.7 °F 23.4 °F 27.5 °F 75% 29.78 in 10.0 mi West 20.7 mph 31.1 mph N/A   Overcast
8:34 PM 34.9 °F 24.6 °F 26.6 °F 72% 29.79 in 10.0 mi West 17.3 mph 27.6 mph N/A   Overcast
8:53 PM 35.1 °F 23.5 °F 25.9 °F 69% 29.79 in 10.0 mi West 21.9 mph 29.9 mph N/A   Overcast
9:14 PM 35.1 °F 23.8 °F 25.5 °F 68% 29.80 in 10.0 mi West 20.7 mph 31.1 mph N/A   Overcast
9:33 PM 34.9 °F 24.2 °F 25.0 °F 67% 29.81 in 10.0 mi West 18.4 mph 28.8 mph N/A   Overcast
9:54 PM 34.9 °F 23.9 °F 23.9 °F 64% 29.82 in 10.0 mi West 19.6 mph 33.4 mph N/A   Overcast
10:13 PM 34.7 °F 24.3 °F 23.4 °F 63% 29.83 in 10.0 mi WNW 17.3 mph 35.7 mph N/A   Overcast
10:34 PM 34.3 °F 22.6 °F 23.0 °F 63% 29.83 in 10.0 mi WNW 21.9 mph 33.4 mph N/A   Overcast
10:53 PM 34.3 °F 24.2 °F 22.8 °F 63% 29.83 in 10.0 mi WNW 16.1 mph - N/A   Overcast
11:14 PM 34.0 °F 23.0 °F 23.0 °F 64% 29.84 in 10.0 mi West 18.4 mph 23.0 mph N/A   Overcast
11:33 PM 33.8 °F 22.8 °F 23.2 °F 65% 29.85 in 10.0 mi WNW 18.4 mph 27.6 mph N/A   Overcast
11:54 PM 33.6 °F 23.3 °F 23.0 °F 65% 29.85 in 10.0 mi West 16.1 mph 26.5 mph N/A   Overcast